Stations météo

réclame
Mon MeteoGroup
Lerwick, Grande-Bretagne (3005): Température de l'air & dewpoint: 13.12.2018 08:00:00 - 19.12.2018 08:00:00 (GMT)Lerwick, Grande-Bretagne (3005): Température de l'air -20cm & Température de l'air -100cm: 13.12.2018 08:00:00 - 19.12.2018 08:00:00 (GMT)Lerwick, Grande-Bretagne (3005): Vitesse du vent & gusts: 13.12.2018 08:00:00 - 19.12.2018 08:00:00 (GMT)Lerwick, Grande-Bretagne (3005): Direction du vent: 13.12.2018 08:00:00 - 19.12.2018 08:00:00 (GMT)Lerwick, Grande-Bretagne (3005): reduced air pressure: 13.12.2018 08:00:00 - 19.12.2018 08:00:00 (GMT)Lerwick, Grande-Bretagne (3005): visibility: 13.12.2018 08:00:00 - 19.12.2018 08:00:00 (GMT)Lerwick, Grande-Bretagne (3005): Ensoleillement: 13.12.2018 08:00:00 - 19.12.2018 08:00:00 (GMT)Lerwick, Grande-Bretagne (3005): Quantités de précipitations: 13.12.2018 08:00:00 - 19.12.2018 08:00:00 (GMT)
Date & Time tt [°C] td [°C] tt -20cm [°C] tt -100cm [°C] ff [km/h] ff [knt] fx [km/h] fx [knt] dd ppp [hPa] vv [km] sd [min] rr [mm]
19.12.2018 08:00:00 7,2 7,2 - - 29 16 - - SSE 995,3 6 0 0,0
19.12.2018 07:00:00 7,3 7,2 - - 34 18 46 25 SSE 995,3 9 0 0,4
19.12.2018 06:00:00 7,2 7,1 - - 31 17 - - SSE 995,2 7 0 0,2
19.12.2018 05:00:00 7,2 7,1 - - 31 17 - - SSE 995,0 9 0 0,4
19.12.2018 04:00:00 7,3 7,3 - - 31 17 - - S 995,2 10 0 0,4
19.12.2018 03:00:00 7,0 6,8 - - 35 19 48 26 S 995,3 6 0 1,0
19.12.2018 02:00:00 7,6 7,6 - - 37 20 57 31 S 995,1 6 0 0,4
19.12.2018 01:00:00 7,6 7,6 - - 44 24 65 35 SSE 995,2 4,5 0 1,0
19.12.2018 00:00:00 7,7 7,7 - - 46 25 63 34 SSE 995,4 4,0 - 1,2
18.12.2018 23:00:00 7,8 7,8 - - 44 24 63 34 SSE 995,7 3,0 0 1,6
18.12.2018 22:00:00 8,0 8,0 - - 46 25 70 38 SSE 995,8 4,0 0 1,4
18.12.2018 21:00:00 8,1 8,1 - - 48 26 63 34 SSE 995,9 3,3 0 1,2
18.12.2018 20:00:00 8,2 8,0 - - 46 25 65 35 SSE 996,0 3,7 0 0,8
18.12.2018 19:00:00 8,3 - - - 46 25 67 36 SSE 995,9 3,2 0 1,0
18.12.2018 18:00:00 8,4 8,1 - - 50 27 68 37 SSE 996,2 3,4 0 1,0
18.12.2018 17:00:00 8,4 8,1 - - 52 28 68 37 SSE 996,2 3,4 0 1,0
18.12.2018 16:00:00 8,4 8,1 - - 52 28 72 39 SSE 996,5 3,1 0 1,6
18.12.2018 15:00:00 8,3 8,3 - - 52 28 81 44 SSE 997,0 2,6 0 2,0
18.12.2018 14:00:00 8,5 8,2 - - 54 29 87 47 SSE 997,9 4,1 0 0,4
18.12.2018 13:00:00 8,5 8,0 - - 55 30 87 47 SSE 998,8 4,2 0 0,0
18.12.2018 12:00:00 8,6 7,9 - - 59 32 85 46 SSE 999,6 5 0 0,0
18.12.2018 11:00:00 8,4 8,0 - - 52 28 83 45 SSE 1000,7 5 0 0,0
18.12.2018 10:00:00 8,1 7,9 - - 55 30 87 47 SE 1001,5 3,8 0 0,0
18.12.2018 09:00:00 8,0 7,3 5,7 7,2 55 30 85 46 SSE 1002,2 5 0 0,0
18.12.2018 08:00:00 7,9 6,8 - - 57 31 87 47 SSE 1002,5 8 0 0,0
18.12.2018 07:00:00 7,9 6,4 - - 57 31 81 44 SSE 1003,3 8 0 0,0
18.12.2018 06:00:00 7,9 6,4 - - 54 29 81 44 SSE 1004,4 8 0 0,0
18.12.2018 05:00:00 7,8 5,8 - - 55 30 80 43 SSE 1005,3 8 0 0,0
18.12.2018 04:00:00 7,7 5,6 - - 52 28 76 41 SSE 1005,7 8 0 0,0
18.12.2018 03:00:00 7,8 5,4 - - 52 28 74 40 SSE 1006,3 8 0 0,0
18.12.2018 02:00:00 7,8 5,2 - - 54 29 74 40 SSE 1007,2 10 0 0,0
18.12.2018 01:00:00 7,6 5,4 - - 52 28 72 39 SSE 1007,7 11 0 0,0
18.12.2018 00:00:00 7,5 4,9 - - 50 27 72 39 SSE 1008,5 12 - 0,0
17.12.2018 23:00:00 7,3 4,5 - - 54 29 72 39 SSE 1008,2 13 0 0,0
17.12.2018 22:00:00 7,1 4,2 - - 54 29 72 39 S 1008,9 17 0 0,0
17.12.2018 21:00:00 6,9 4,0 - - 48 26 65 35 S 1008,6 24 0 0,0
17.12.2018 20:00:00 7,2 4,3 - - 46 25 61 33 SSE 1009,1 25 0 0,0
17.12.2018 19:00:00 7,0 4,8 - - 41 22 55 30 S 1009,2 19 0 0,0
17.12.2018 18:00:00 7,2 6,5 - - 35 19 50 27 SSE 1009,4 12 0 0,2
17.12.2018 17:00:00 7,2 6,5 - - 35 19 48 26 SSE 1009,4 15 0 0,0
17.12.2018 16:00:00 7,1 6,4 - - 34 18 50 27 SSE 1009,3 12 0 0,0
17.12.2018 15:00:00 6,9 6,1 - - 37 20 50 27 SSE 1009,2 12 0 0,0
17.12.2018 14:00:00 6,9 6,0 - - 39 21 50 27 SSE 1008,5 15 0 0,0
17.12.2018 13:00:00 6,8 5,9 - - 34 18 46 25 S 1008,9 5 0 0,2
17.12.2018 12:00:00 6,9 5,9 - - 34 18 48 26 SSE 1009,3 18 0 0,0
17.12.2018 11:00:00 7,0 5,4 - - 37 20 46 25 S 1009,3 25 0 0,0
17.12.2018 10:00:00 6,1 4,7 - - 29 16 - - SSE 1008,8 20 0 0,0
17.12.2018 09:00:00 6,4 4,9 5,4 7,2 29 16 46 25 SSE 1008,5 15 0 0,0
17.12.2018 08:00:00 6,4 4,7 - - 29 16 50 27 S 1007,8 18 0 0,0
17.12.2018 07:00:00 7,1 5,2 - - 35 19 48 26 S 1007,3 14 0 0,0
17.12.2018 06:00:00 7,1 5,8 - - 31 17 46 25 S 1006,6 11 0 0,2
17.12.2018 05:00:00 7,4 5,6 - - 31 17 - - S 1006,2 12 0 0,0
17.12.2018 04:00:00 7,0 4,8 - - 31 17 - - S 1006,0 12 0 0,0
17.12.2018 03:00:00 7,0 5,4 - - 29 16 - - S 1005,5 13 0 0,6
17.12.2018 02:00:00 6,7 3,8 - - 37 20 46 25 S 1005,1 19 0 0,0
17.12.2018 01:00:00 6,4 4,1 - - 31 17 - - S 1004,6 16 0 0,0
17.12.2018 00:00:00 6,5 3,8 - - 34 18 - - S 1004,2 17 - 0,0
16.12.2018 23:00:00 6,7 4,7 - - 31 17 - - S 1003,7 12 0 0,0
16.12.2018 22:00:00 6,1 4,4 - - 22 12 - - S 1003,2 8 0 0,0
16.12.2018 21:00:00 6,2 4,2 - - 28 15 - - SSW 1002,6 8 0 0,0
16.12.2018 20:00:00 6,0 4,3 - - 26 14 - - SSW 1001,9 7 0 0,2
16.12.2018 19:00:00 6,5 4,6 - - 31 17 - - SSW 1000,7 9 0 0,2
16.12.2018 18:00:00 5,4 4,2 - - 41 22 55 30 SW 999,4 4,5 0 1,0
16.12.2018 17:00:00 6,1 4,7 - - 39 21 61 33 SW 997,4 8 0 1,0
16.12.2018 16:00:00 6,2 5,1 - - 31 17 48 26 SSW 995,7 5 0 0,2
16.12.2018 15:00:00 6,1 5,0 - - 29 16 - - SSW 993,8 5 0 0,0
16.12.2018 14:00:00 6,1 4,4 - - 31 17 48 26 S 992,5 6 0 0,8
16.12.2018 13:00:00 6,7 4,3 - - 31 17 72 39 S 991,9 5 0 0,0
16.12.2018 12:00:00 6,9 5,5 - - 63 34 100 54 SE 990,7 5 0 0,0
16.12.2018 11:00:00 5,7 4,1 - - 74 40 107 58 SE 992,7 3,5 0 0,0
16.12.2018 10:00:00 5,7 3,1 - - 76 41 100 54 SE 993,9 6 0 0,0
16.12.2018 09:00:00 5,5 2,7 5,2 7,4 78 42 106 57 SE 994,4 6 0 0,0
16.12.2018 08:00:00 5,2 2,9 - - 76 41 107 58 SE 994,5 6 0 0,2
16.12.2018 07:00:00 5,1 3,3 - - 68 37 102 55 SE 994,9 4,8 0 0,2
16.12.2018 06:00:00 5,2 2,5 - - 65 35 100 54 SSE 995,4 6 0 0,0
16.12.2018 05:00:00 5,3 2,8 - - 68 37 107 58 SE 995,6 4,7 0 0,2
16.12.2018 04:00:00 5,2 1,8 - - 74 40 104 56 SE 996,1 6 0 0,0
16.12.2018 03:00:00 5,7 0,8 - - 70 38 104 56 SE 996,8 5 0 0,0
16.12.2018 02:00:00 5,6 0,6 - - 76 41 107 58 SSE 997,8 6 0 0,0
16.12.2018 01:00:00 5,8 0,8 - - 68 37 98 53 SSE 998,3 6 0 0,0
16.12.2018 00:00:00 5,6 1,0 - - 68 37 107 58 SSE 999,5 6 - 0,0
15.12.2018 23:00:00 5,6 0,5 - - 68 37 98 53 SSE 1000,3 6 0 0,0
15.12.2018 22:00:00 5,5 0,9 - - 67 36 100 54 SSE 1001,2 6 0 0,0
15.12.2018 21:00:00 5,5 0,3 - - 68 37 104 56 SSE 1001,7 7 0 0,0
15.12.2018 20:00:00 5,3 0,8 - - 65 35 96 52 SSE 1002,7 6 0 0,0
15.12.2018 19:00:00 5,3 0,9 - - 65 35 94 51 SSE 1003,8 8 0 0,0
15.12.2018 18:00:00 4,7 1,2 - - 68 37 94 51 SSE 1005,3 9 0 0,2
15.12.2018 17:00:00 4,2 1,2 - - 65 35 98 53 SSE 1006,2 4,7 0 0,0
15.12.2018 16:00:00 5,5 0,3 - - 65 35 91 49 SSE 1006,9 9 0 0,0
15.12.2018 15:00:00 4,9 1,3 - - 61 33 81 44 SSE 1008,0 10 0 0,0
15.12.2018 14:00:00 5,6 1,2 - - 54 29 87 47 SSE 1009,1 10 6 0,0
15.12.2018 13:00:00 5,0 1,5 - - 59 32 85 46 SSE 1010,8 10 12 0,2
15.12.2018 12:00:00 5,1 2,9 - - 57 31 85 46 SSE 1012,2 6 0 0,0
15.12.2018 11:00:00 4,1 3,3 - - 65 35 87 47 S 1013,7 10 6 0,0
15.12.2018 10:00:00 5,0 2,4 - - 63 34 89 48 S 1013,1 9 0 0,2
15.12.2018 09:00:00 5,0 1,9 5,4 7,4 63 34 85 46 S 1013,4 10 0 0,0
15.12.2018 08:00:00 4,5 2,4 - - 61 33 87 47 S 1013,9 11 0 0,2
15.12.2018 07:00:00 3,3 2,3 - - 70 38 100 54 S 1014,3 9 0 0,2
15.12.2018 06:00:00 5,7 1,2 - - 65 35 89 48 S 1014,6 13 0 0,0
15.12.2018 05:00:00 5,3 1,5 - - 65 35 83 45 S 1015,1 13 0 0,0
15.12.2018 04:00:00 5,3 2,2 - - 55 30 93 50 S 1016,0 15 0 0,2
15.12.2018 03:00:00 5,1 2,5 - - 54 29 76 41 SSE 1016,5 6 0 0,0
15.12.2018 02:00:00 5,0 2,0 - - 54 29 80 43 S 1016,9 15 0 0,2
15.12.2018 01:00:00 5,0 2,7 - - 52 28 89 48 S 1017,7 9 0 0,0
15.12.2018 00:00:00 5,9 1,6 - - 57 31 83 45 S 1017,9 14 - 0,0
14.12.2018 23:00:00 6,1 0,9 - - 57 31 81 44 S 1018,5 13 0 0,0
14.12.2018 22:00:00 5,7 2,4 - - 54 29 78 42 S 1018,8 13 0 0,0
14.12.2018 21:00:00 5,4 2,2 - - 52 28 72 39 S 1018,8 17 0 0,0
14.12.2018 20:00:00 4,8 2,5 - - 52 28 80 43 SSE 1019,0 16 0 0,4
14.12.2018 19:00:00 6,0 1,1 - - 52 28 70 38 S 1019,3 21 0 0,0
14.12.2018 18:00:00 5,9 2,3 - - 48 26 68 37 SSE 1019,5 16 0 0,0
14.12.2018 17:00:00 5,7 2,3 - - 48 26 67 36 S 1020,4 20 0 0,0
14.12.2018 16:00:00 5,4 2,4 - - 44 24 67 36 S 1021,1 24 0 0,2
14.12.2018 15:00:00 4,6 2,1 - - 46 25 70 38 S 1021,6 21 0 0,0
14.12.2018 14:00:00 5,1 1,7 - - 42 23 70 38 S 1022,1 24 18 0,0
14.12.2018 13:00:00 5,5 1,9 - - 37 20 63 34 SSE 1022,4 19 30 0,0
14.12.2018 12:00:00 5,3 1,5 - - 48 26 67 36 S 1022,5 25 18 0,0
14.12.2018 11:00:00 5,0 3,0 - - 46 25 74 40 S 1022,8 11 0 0,0
14.12.2018 10:00:00 5,3 1,8 - - 54 29 67 36 SSE 1022,9 28 0 0,4
14.12.2018 09:00:00 5,7 1,4 5,4 7,5 48 26 67 36 S 1022,5 30 0 0,0
14.12.2018 08:00:00 5,8 2,3 - - 48 26 65 35 S 1022,6 26 0 0,0
14.12.2018 07:00:00 5,7 1,9 - - 44 24 65 35 S 1022,6 27 0 0,2
14.12.2018 06:00:00 5,3 3,7 - - 48 26 67 36 S 1022,8 6 0 0,4
14.12.2018 05:00:00 5,3 3,4 - - 44 24 65 35 S 1022,8 18 0 0,2
14.12.2018 04:00:00 5,4 3,3 - - 48 26 67 36 S 1023,1 4,7 0 0,0
14.12.2018 03:00:00 5,9 3,4 - - 46 25 65 35 S 1022,7 17 0 0,0
14.12.2018 02:00:00 6,3 3,6 - - 44 24 68 37 S 1022,7 9 0 0,0
14.12.2018 01:00:00 6,8 3,0 - - 50 27 70 38 S 1022,7 16 0 0,0
14.12.2018 00:00:00 6,5 3,0 - - 48 26 67 36 S 1022,8 18 - 0,0
13.12.2018 23:00:00 6,6 1,9 - - 48 26 68 37 S 1022,5 23 0 0,0
13.12.2018 22:00:00 6,6 2,0 - - 48 26 67 36 S 1022,4 18 0 0,0
13.12.2018 21:00:00 6,4 1,9 - - 50 27 67 36 S 1022,3 23 0 0,0
13.12.2018 20:00:00 6,6 2,0 - - 54 29 67 36 S 1022,0 19 0 0,0
13.12.2018 19:00:00 6,3 2,8 - - 50 27 67 36 S 1022,1 11 0 0,0
13.12.2018 18:00:00 6,5 2,2 - - 54 29 68 37 S 1021,7 15 0 0,0
13.12.2018 17:00:00 6,4 2,7 - - 48 26 68 37 S 1021,7 16 0 0,0
13.12.2018 16:00:00 6,6 3,1 - - 48 26 65 35 S 1021,7 15 0 0,0
13.12.2018 15:00:00 6,6 2,7 - - 54 29 67 36 S 1021,3 17 0 0,0
13.12.2018 14:00:00 6,5 2,2 - - 55 30 70 38 S 1021,3 22 6 0,0
13.12.2018 13:00:00 6,8 2,4 - - 50 27 68 37 SSE 1021,3 20 30 0,0
13.12.2018 12:00:00 6,8 3,2 - - 52 28 70 38 S 1021,5 19 6 0,0
13.12.2018 11:00:00 6,5 3,8 - - 48 26 68 37 S 1021,4 12 0 0,0
13.12.2018 10:00:00 6,6 3,8 - - 48 26 74 40 S 1021,2 15 0 0,0
13.12.2018 09:00:00 6,5 3,3 5,2 7,5 50 27 68 37 SSE 1021,2 13 0 0,0
13.12.2018 08:00:00 6,3 2,9 - - 48 26 70 38 S 1020,9 13 0 0,2

tt = Température de l'air
td = dewpoint
tt -20cm = Température de l'air -20cm
tt -100cm = Température de l'air -100cm
ff = Vitesse du vent
fx = gusts
dd = Direction du vent
ppp = reduced air pressure
vv = visibility
sd = Ensoleillement
rr = Quantités de précipitations

stations d'obs. à proximité